Time,TemperatureF,DewpointF,PressureIn,WindDirection,WindDirectionDegrees,WindSpeedMPH,WindSpeedGustMPH,Humidity,HourlyPrecipIn,Conditions,Clouds,dailyrainin,SoftwareType,DateUTC
2013-02-08 00:01:00,20.3,18.5,29.60,North,0,15.4,20.1,93,0.00,,,0.00,WUHU216HW,2013-02-08 06:01:00,
2013-02-08 00:06:00,20.3,18.5,29.60,North,0,18.3,20.1,93,0.00,,,0.00,WUHU216HW,2013-02-08 06:06:00,
2013-02-08 00:11:00,20.3,18.5,29.60,North,0,8.9,18.3,93,0.00,,,0.00,WUHU216HW,2013-02-08 06:11:00,
2013-02-08 00:16:00,20.3,18.5,29.60,North,0,8.5,18.3,93,0.00,,,0.00,WUHU216HW,2013-02-08 06:16:00,
2013-02-08 00:21:00,20.3,18.5,29.60,North,0,13.9,14.3,93,0.00,,,0.00,WUHU216HW,2013-02-08 06:21:00,
2013-02-08 00:26:00,20.3,18.5,29.60,North,0,15.9,17.2,93,0.00,,,0.00,WUHU216HW,2013-02-08 06:26:00,
2013-02-08 00:31:00,20.3,18.5,29.60,North,0,12.5,17.2,93,0.00,,,0.00,WUHU216HW,2013-02-08 06:31:00,
2013-02-08 00:36:00,20.2,18.2,29.60,North,0,13.6,17.4,92,0.00,,,0.00,WUHU216HW,2013-02-08 06:36:00,
2013-02-08 00:41:00,20.2,18.2,29.60,North,0,17.2,20.6,92,0.00,,,0.00,WUHU216HW,2013-02-08 06:41:00,
2013-02-08 00:46:00,20.3,18.4,29.60,North,0,11.6,20.6,92,0.00,,,0.00,WUHU216HW,2013-02-08 06:46:00,
2013-02-08 00:51:00,20.3,18.4,29.61,North,0,14.5,17.2,92,0.00,,,0.00,WUHU216HW,2013-02-08 06:51:00,
2013-02-08 00:56:00,20.3,18.4,29.61,North,0,13.4,17.2,92,0.00,,,0.00,WUHU216HW,2013-02-08 06:56:00,
2013-02-08 01:01:00,20.3,18.4,29.61,North,0,6.7,16.3,92,0.00,,,0.00,WUHU216HW,2013-02-08 07:01:00,
2013-02-08 01:06:00,20.3,18.4,29.61,North,0,13.9,13.9,92,0.00,,,0.00,WUHU216HW,2013-02-08 07:06:00,
2013-02-08 01:11:00,20.3,18.4,29.62,North,0,6.0,13.9,92,0.00,,,0.00,WUHU216HW,2013-02-08 07:11:00,
2013-02-08 01:16:00,20.3,18.4,29.62,North,0,8.1,13.9,92,0.00,,,0.00,WUHU216HW,2013-02-08 07:16:00,
2013-02-08 01:21:00,20.3,18.4,29.62,North,0,16.8,16.8,92,0.00,,,0.00,WUHU216HW,2013-02-08 07:21:00,
2013-02-08 01:26:00,20.3,18.4,29.62,North,0,8.5,16.8,92,0.00,,,0.00,WUHU216HW,2013-02-08 07:26:00,
2013-02-08 01:31:00,20.3,18.4,29.62,North,0,10.7,17.0,92,0.00,,,0.00,WUHU216HW,2013-02-08 07:31:00,
2013-02-08 01:36:00,20.5,18.6,29.63,North,0,7.6,17.0,92,0.00,,,0.00,WUHU216HW,2013-02-08 07:36:00,
2013-02-08 01:41:00,20.7,18.7,29.63,North,0,8.7,13.4,92,0.00,,,0.00,WUHU216HW,2013-02-08 07:41:00,
2013-02-08 01:46:00,20.9,18.9,29.64,North,0,13.9,13.9,92,0.00,,,0.00,WUHU216HW,2013-02-08 07:46:00,
2013-02-08 01:51:00,20.9,18.9,29.64,North,0,15.7,15.7,92,0.00,,,0.00,WUHU216HW,2013-02-08 07:51:00,
2013-02-08 01:56:00,21.1,19.1,29.64,North,0,9.2,15.7,92,0.00,,,0.00,WUHU216HW,2013-02-08 07:56:00,
2013-02-08 02:01:00,21.1,19.1,29.64,North,0,13.6,15.7,92,0.00,,,0.00,WUHU216HW,2013-02-08 08:01:00,
2013-02-08 02:06:00,21.2,19.0,29.65,North,0,9.8,19.0,91,0.00,,,0.00,WUHU216HW,2013-02-08 08:06:00,
2013-02-08 02:11:00,21.2,19.0,29.65,North,0,12.1,19.0,91,0.00,,,0.00,WUHU216HW,2013-02-08 08:11:00,
2013-02-08 02:16:00,21.2,19.0,29.65,North,0,6.7,17.7,91,0.00,,,0.00,WUHU216HW,2013-02-08 08:16:00,
2013-02-08 02:21:00,21.2,19.0,29.65,North,0,6.7,17.7,91,0.00,,,0.00,WUHU216HW,2013-02-08 08:21:00,
2013-02-08 02:26:00,21.2,19.0,29.65,North,0,11.0,17.2,91,0.00,,,0.00,WUHU216HW,2013-02-08 08:26:00,
2013-02-08 02:31:00,21.2,19.0,29.66,North,0,19.2,19.5,91,0.00,,,0.00,WUHU216HW,2013-02-08 08:31:00,
2013-02-08 02:36:00,21.2,19.0,29.66,North,0,8.9,19.5,91,0.00,,,0.00,WUHU216HW,2013-02-08 08:36:00,
2013-02-08 02:41:00,21.2,18.7,29.66,North,0,10.5,19.2,90,0.00,,,0.00,WUHU216HW,2013-02-08 08:41:00,
2013-02-08 02:46:00,21.2,18.7,29.66,North,0,15.0,15.0,90,0.00,,,0.00,WUHU216HW,2013-02-08 08:46:00,
2013-02-08 02:51:00,21.2,18.7,29.66,North,0,16.8,16.8,90,0.00,,,0.00,WUHU216HW,2013-02-08 08:51:00,
2013-02-08 02:56:00,21.2,18.7,29.66,North,0,7.2,16.8,90,0.00,,,0.00,WUHU216HW,2013-02-08 08:56:00,
2013-02-08 03:01:00,21.2,18.7,29.66,North,0,15.2,22.1,90,0.00,,,0.00,WUHU216HW,2013-02-08 09:01:00,
2013-02-08 03:06:00,21.2,18.7,29.66,North,0,11.4,22.1,90,0.00,,,0.00,WUHU216HW,2013-02-08 09:06:00,
2013-02-08 03:11:00,21.2,18.7,29.66,North,0,19.7,19.7,90,0.00,,,0.00,WUHU216HW,2013-02-08 09:11:00,
2013-02-08 03:16:00,21.2,18.7,29.66,North,0,11.2,19.7,90,0.00,,,0.00,WUHU216HW,2013-02-08 09:16:00,
2013-02-08 03:21:00,21.2,18.7,29.66,North,0,15.7,19.7,90,0.00,,,0.00,WUHU216HW,2013-02-08 09:21:00,
2013-02-08 03:26:00,21.2,18.7,29.66,North,0,9.2,19.0,90,0.00,,,0.00,WUHU216HW,2013-02-08 09:26:00,
2013-02-08 03:31:00,21.2,18.7,29.66,North,0,15.7,19.0,90,0.00,,,0.00,WUHU216HW,2013-02-08 09:31:00,
2013-02-08 03:36:00,21.2,18.7,29.67,North,0,6.3,16.1,90,0.00,,,0.00,WUHU216HW,2013-02-08 09:36:00,
2013-02-08 03:41:00,21.2,18.7,29.67,North,0,5.4,15.7,90,0.00,,,0.00,WUHU216HW,2013-02-08 09:41:00,
2013-02-08 03:46:00,21.2,18.7,29.67,North,0,8.9,15.7,90,0.00,,,0.00,WUHU216HW,2013-02-08 09:46:00,
2013-02-08 03:51:00,21.2,18.7,29.68,North,0,11.0,13.4,90,0.00,,,0.00,WUHU216HW,2013-02-08 09:51:00,
2013-02-08 03:56:00,21.2,18.5,29.68,North,0,8.9,13.4,89,0.00,,,0.00,WUHU216HW,2013-02-08 09:56:00,
2013-02-08 04:01:00,21.2,18.5,29.68,North,0,6.9,12.5,89,0.00,,,0.00,WUHU216HW,2013-02-08 10:01:00,
2013-02-08 04:06:00,21.2,18.5,29.68,North,0,4.7,12.1,89,0.00,,,0.00,WUHU216HW,2013-02-08 10:06:00,
2013-02-08 04:11:00,21.2,18.2,29.68,North,0,5.4,13.4,88,0.00,,,0.00,WUHU216HW,2013-02-08 10:11:00,
2013-02-08 04:16:00,21.2,18.2,29.69,North,0,11.0,16.8,88,0.00,,,0.00,WUHU216HW,2013-02-08 10:16:00,
2013-02-08 04:21:00,21.2,18.2,29.69,North,0,4.7,16.8,88,0.00,,,0.00,WUHU216HW,2013-02-08 10:21:00,
2013-02-08 04:26:00,21.2,17.9,29.69,North,0,5.6,11.0,87,0.00,,,0.00,WUHU216HW,2013-02-08 10:26:00,
2013-02-08 04:31:00,21.2,17.9,29.69,North,0,4.7,6.9,87,0.00,,,0.00,WUHU216HW,2013-02-08 10:31:00,
2013-02-08 04:36:00,21.2,17.9,29.69,North,0,5.8,13.6,87,0.00,,,0.00,WUHU216HW,2013-02-08 10:36:00,
2013-02-08 04:41:00,21.1,17.7,29.69,North,0,8.9,13.6,87,0.00,,,0.00,WUHU216HW,2013-02-08 10:41:00,
2013-02-08 04:46:00,21.1,17.7,29.69,North,0,6.5,17.0,87,0.00,,,0.00,WUHU216HW,2013-02-08 10:46:00,
2013-02-08 04:51:00,20.9,17.6,29.70,North,0,6.3,17.0,87,0.00,,,0.00,WUHU216HW,2013-02-08 10:51:00,
2013-02-08 04:56:00,20.9,17.6,29.70,North,0,8.3,13.0,87,0.00,,,0.00,WUHU216HW,2013-02-08 10:56:00,
2013-02-08 05:01:00,20.9,17.6,29.70,North,0,9.8,13.4,87,0.00,,,0.00,WUHU216HW,2013-02-08 11:01:00,
2013-02-08 05:06:00,20.7,17.4,29.71,North,0,12.8,16.3,87,0.00,,,0.00,WUHU216HW,2013-02-08 11:06:00,
2013-02-08 05:11:00,20.7,17.4,29.71,North,0,10.7,16.3,87,0.00,,,0.00,WUHU216HW,2013-02-08 11:11:00,
2013-02-08 05:16:00,20.5,17.2,29.71,North,0,13.4,15.0,87,0.00,,,0.00,WUHU216HW,2013-02-08 11:16:00,
2013-02-08 05:21:00,20.7,17.4,29.72,North,0,10.5,13.4,87,0.00,,,0.00,WUHU216HW,2013-02-08 11:21:00,
2013-02-08 05:26:00,20.5,16.9,29.72,North,0,4.7,10.5,86,0.00,,,0.00,WUHU216HW,2013-02-08 11:26:00,
2013-02-08 05:31:00,20.5,16.7,29.73,North,0,5.6,7.6,85,0.00,,,0.00,WUHU216HW,2013-02-08 11:31:00,
2013-02-08 05:36:00,20.5,16.7,29.73,North,0,4.7,7.8,85,0.00,,,0.00,WUHU216HW,2013-02-08 11:36:00,
2013-02-08 05:41:00,20.5,16.7,29.73,North,0,6.7,11.9,85,0.00,,,0.00,WUHU216HW,2013-02-08 11:41:00,
2013-02-08 05:46:00,20.3,16.5,29.73,North,0,5.1,11.9,85,0.00,,,0.00,WUHU216HW,2013-02-08 11:46:00,
2013-02-08 05:51:00,20.3,16.5,29.73,North,0,3.6,6.7,85,0.00,,,0.00,WUHU216HW,2013-02-08 11:51:00,
2013-02-08 05:56:00,20.2,16.3,29.73,North,0,3.4,5.1,85,0.00,,,0.00,WUHU216HW,2013-02-08 11:56:00,
2013-02-08 06:01:00,20.0,16.1,29.74,North,0,4.7,9.2,85,0.00,,,0.00,WUHU216HW,2013-02-08 12:01:00,
2013-02-08 06:06:00,20.0,16.1,29.74,North,0,5.1,9.2,85,0.00,,,0.00,WUHU216HW,2013-02-08 12:06:00,
2013-02-08 06:11:00,20.2,16.3,29.74,North,0,4.7,5.1,85,0.00,,,0.00,WUHU216HW,2013-02-08 12:11:00,
2013-02-08 06:16:00,19.8,15.7,29.74,North,0,4.7,5.1,84,0.00,,,0.00,WUHU216HW,2013-02-08 12:16:00,
2013-02-08 06:21:00,19.8,15.7,29.74,North,0,2.9,4.9,84,0.00,,,0.00,WUHU216HW,2013-02-08 12:21:00,
2013-02-08 06:26:00,19.8,15.7,29.74,North,0,3.6,6.3,84,0.00,,,0.00,WUHU216HW,2013-02-08 12:26:00,
2013-02-08 06:31:00,19.6,15.5,29.74,North,0,5.6,6.3,84,0.00,,,0.00,WUHU216HW,2013-02-08 12:31:00,
2013-02-08 06:36:00,19.4,15.3,29.74,North,0,4.3,5.6,84,0.00,,,0.00,WUHU216HW,2013-02-08 12:36:00,
2013-02-08 06:41:00,19.4,15.3,29.75,North,0,3.4,5.6,84,0.00,,,0.00,WUHU216HW,2013-02-08 12:41:00,
2013-02-08 06:46:00,19.4,15.3,29.75,North,0,3.8,5.6,84,0.00,,,0.00,WUHU216HW,2013-02-08 12:46:00,
2013-02-08 06:51:00,19.3,15.1,29.75,North,0,4.3,5.6,84,0.00,,,0.00,WUHU216HW,2013-02-08 12:51:00,
2013-02-08 06:56:00,19.1,14.9,29.75,North,0,2.7,5.4,84,0.00,,,0.00,WUHU216HW,2013-02-08 12:56:00,
2013-02-08 07:01:00,19.1,14.9,29.75,North,0,3.1,5.4,84,0.00,,,0.00,WUHU216HW,2013-02-08 13:01:00,
2013-02-08 07:06:00,19.1,14.9,29.75,North,0,4.0,4.0,84,0.00,,,0.00,WUHU216HW,2013-02-08 13:06:00,
2013-02-08 07:11:00,18.7,14.6,29.76,North,0,4.0,4.5,84,0.00,,,0.00,WUHU216HW,2013-02-08 13:11:00,
2013-02-08 07:16:00,18.7,14.9,29.76,North,0,3.6,4.5,85,0.00,,,0.00,WUHU216HW,2013-02-08 13:16:00,
2013-02-08 07:21:00,18.5,14.7,29.76,North,0,3.1,4.7,85,0.00,,,0.00,WUHU216HW,2013-02-08 13:21:00,
2013-02-08 07:26:00,18.5,14.7,29.76,North,0,3.4,4.7,85,0.00,,,0.00,WUHU216HW,2013-02-08 13:26:00,
2013-02-08 07:31:00,18.5,14.7,29.76,North,0,3.4,3.4,85,0.00,,,0.00,WUHU216HW,2013-02-08 13:31:00,
2013-02-08 07:36:00,18.5,14.7,29.76,North,0,3.4,3.4,85,0.00,,,0.00,WUHU216HW,2013-02-08 13:36:00,
2013-02-08 07:55:00,18.0,14.1,29.78,North,0,5.8,5.8,85,0.00,,,0.00,WUHU216HW,2013-02-08 13:55:00,
2013-02-08 08:00:00,18.0,14.1,29.79,North,0,3.4,5.8,85,0.00,,,0.00,WUHU216HW,2013-02-08 14:00:00,
2013-02-08 08:05:00,18.0,14.1,29.79,North,0,3.4,3.4,85,0.00,,,0.00,WUHU216HW,2013-02-08 14:05:00,
2013-02-08 08:30:00,17.8,13.7,29.80,North,0,2.7,2.7,84,0.00,,,0.00,WUHU216HW,2013-02-08 14:30:00,
2013-02-08 08:35:00,17.8,13.7,29.80,North,0,2.7,2.7,84,0.00,,,0.00,WUHU216HW,2013-02-08 14:35:00,
2013-02-08 09:00:00,18.4,14.2,29.81,North,0,4.0,4.0,84,0.00,,,0.00,WUHU216HW,2013-02-08 15:00:00,
2013-02-08 09:05:00,18.4,14.2,29.81,North,0,4.0,4.0,84,0.00,,,0.00,WUHU216HW,2013-02-08 15:05:00,
2013-02-08 09:30:00,18.9,14.8,29.82,North,0,4.7,4.7,84,0.00,,,0.00,WUHU216HW,2013-02-08 15:30:00,
2013-02-08 09:35:00,18.9,14.8,29.82,North,0,4.7,4.7,84,0.00,,,0.00,WUHU216HW,2013-02-08 15:35:00,
2013-02-08 10:00:00,18.7,14.0,29.83,North,0,8.9,8.9,82,0.00,,,0.00,WUHU216HW,2013-02-08 16:00:00,
2013-02-08 10:05:00,18.7,14.0,29.83,North,0,8.9,8.9,82,0.00,,,0.00,WUHU216HW,2013-02-08 16:05:00,
2013-02-08 10:30:00,19.4,14.8,29.84,NNW,338,2.5,2.5,82,0.00,,,0.00,WUHU216HW,2013-02-08 16:30:00,
2013-02-08 10:35:00,19.4,14.8,29.84,NNW,338,2.5,2.5,82,0.00,,,0.00,WUHU216HW,2013-02-08 16:35:00,
2013-02-08 11:00:00,19.6,14.9,29.85,North,0,4.0,4.0,82,0.00,,,0.00,WUHU216HW,2013-02-08 17:00:00,
2013-02-08 11:05:00,19.6,14.9,29.85,North,0,4.0,4.0,82,0.00,,,0.00,WUHU216HW,2013-02-08 17:05:00,
2013-02-08 11:30:00,21.2,16.3,29.84,NNE,23,7.8,7.8,81,0.00,,,0.00,WUHU216HW,2013-02-08 17:30:00,
2013-02-08 11:35:00,21.2,16.3,29.84,NNE,23,7.8,7.8,81,0.00,,,0.00,WUHU216HW,2013-02-08 17:35:00,
2013-02-08 12:00:00,21.6,15.8,29.84,North,0,4.7,4.7,78,0.00,,,0.00,WUHU216HW,2013-02-08 18:00:00,
2013-02-08 12:05:00,21.6,15.8,29.84,North,0,4.7,4.7,78,0.00,,,0.00,WUHU216HW,2013-02-08 18:05:00,
2013-02-08 12:30:00,22.7,16.6,29.84,North,0,7.2,7.2,77,0.00,,,0.00,WUHU216HW,2013-02-08 18:30:00,
2013-02-08 12:35:00,22.7,16.6,29.84,North,0,7.2,7.2,77,0.00,,,0.00,WUHU216HW,2013-02-08 18:35:00,
2013-02-08 13:00:00,22.7,15.9,29.85,NNW,338,3.4,3.4,75,0.00,,,0.00,WUHU216HW,2013-02-08 19:00:00,
2013-02-08 13:05:00,22.7,15.9,29.85,NNW,338,3.4,3.4,75,0.00,,,0.00,WUHU216HW,2013-02-08 19:05:00,
2013-02-08 13:30:00,22.5,15.8,29.85,NNW,338,2.0,2.0,75,0.00,,,0.00,WUHU216HW,2013-02-08 19:30:00,
2013-02-08 13:35:00,22.5,15.8,29.85,NNW,338,2.0,2.0,75,0.00,,,0.00,WUHU216HW,2013-02-08 19:35:00,
2013-02-08 14:00:00,22.3,15.6,29.85,NNW,338,2.5,2.5,75,0.00,,,0.00,WUHU216HW,2013-02-08 20:00:00,
2013-02-08 14:05:00,22.3,15.6,29.85,NNW,338,2.5,2.5,75,0.00,,,0.00,WUHU216HW,2013-02-08 20:05:00,
2013-02-08 14:30:00,22.1,15.4,29.86,NNW,338,3.1,3.1,75,0.00,,,0.00,WUHU216HW,2013-02-08 20:30:00,
2013-02-08 14:35:00,22.1,15.4,29.86,NNW,338,3.1,3.1,75,0.00,,,0.00,WUHU216HW,2013-02-08 20:35:00,
2013-02-08 15:00:00,22.7,15.3,29.86,NNW,338,2.0,2.0,73,0.00,,,0.00,WUHU216HW,2013-02-08 21:00:00,
2013-02-08 15:05:00,22.7,15.3,29.86,NNW,338,2.0,2.0,73,0.00,,,0.00,WUHU216HW,2013-02-08 21:05:00,
2013-02-08 15:30:00,23.9,16.5,29.85,NNW,338,4.5,4.5,73,0.00,,,0.00,WUHU216HW,2013-02-08 21:30:00,
2013-02-08 15:35:00,23.9,16.5,29.85,NNW,338,4.5,4.5,73,0.00,,,0.00,WUHU216HW,2013-02-08 21:35:00,
2013-02-08 16:00:00,22.1,14.8,29.85,NNE,23,2.7,2.7,73,0.00,,,0.00,WUHU216HW,2013-02-08 22:00:00,
2013-02-08 16:05:00,22.1,14.8,29.85,NNE,23,2.7,2.7,73,0.00,,,0.00,WUHU216HW,2013-02-08 22:05:00,
2013-02-08 16:30:00,22.3,15.3,29.85,North,0,0.7,0.7,74,0.00,,,0.00,WUHU216HW,2013-02-08 22:30:00,
2013-02-08 16:35:00,22.3,15.3,29.85,North,0,0.7,0.7,74,0.00,,,0.00,WUHU216HW,2013-02-08 22:35:00,
2013-02-08 17:00:00,20.5,13.8,29.85,ENE,68,1.1,1.1,75,0.00,,,0.00,WUHU216HW,2013-02-08 23:00:00,
2013-02-08 17:05:00,20.5,13.8,29.85,ENE,68,1.1,1.1,75,0.00,,,0.00,WUHU216HW,2013-02-08 23:05:00,
2013-02-08 17:30:00,16.9,10.3,29.87,NE,45,0.0,0.0,75,0.00,,,0.00,WUHU216HW,2013-02-08 23:30:00,
2013-02-08 17:35:00,16.9,10.3,29.87,NE,45,0.0,0.0,75,0.00,,,0.00,WUHU216HW,2013-02-08 23:35:00,
2013-02-08 18:00:00,15.8,9.9,29.86,WSW,248,0.0,0.0,77,0.00,,,0.00,WUHU216HW,2013-02-09 00:00:00,
2013-02-08 18:05:00,15.8,9.9,29.86,WSW,248,0.0,0.0,77,0.00,,,0.00,WUHU216HW,2013-02-09 00:05:00,
2013-02-08 18:30:00,13.3,7.8,29.87,WSW,248,0.4,0.4,78,0.00,,,0.00,WUHU216HW,2013-02-09 00:30:00,
2013-02-08 18:35:00,13.3,7.8,29.87,WSW,248,0.4,0.4,78,0.00,,,0.00,WUHU216HW,2013-02-09 00:35:00,
2013-02-08 19:00:00,10.6,5.1,29.87,WSW,248,0.0,0.0,78,0.00,,,0.00,WUHU216HW,2013-02-09 01:00:00,
2013-02-08 19:05:00,10.6,5.1,29.87,WSW,248,0.0,0.0,78,0.00,,,0.00,WUHU216HW,2013-02-09 01:05:00,
2013-02-08 19:10:00,9.7,4.1,29.87,SW,225,0.7,0.7,78,0.00,,,0.00,WUHU216HW,2013-02-09 01:10:00,
2013-02-08 19:15:00,9.9,4.3,29.87,SW,225,0.4,0.7,78,0.00,,,0.00,WUHU216HW,2013-02-09 01:15:00,
2013-02-08 19:20:00,9.4,3.9,29.87,SW,225,0.4,0.7,78,0.00,,,0.00,WUHU216HW,2013-02-09 01:20:00,
2013-02-08 19:25:00,9.4,4.1,29.87,SW,225,0.2,0.7,79,0.00,,,0.00,WUHU216HW,2013-02-09 01:25:00,
2013-02-08 19:30:00,9.0,3.8,29.87,SW,225,0.4,0.7,79,0.00,,,0.00,WUHU216HW,2013-02-09 01:30:00,
2013-02-08 19:35:00,8.6,3.5,29.88,WSW,248,1.3,1.8,79,0.00,,,0.00,WUHU216HW,2013-02-09 01:35:00,
2013-02-08 19:40:00,8.6,3.8,29.88,WSW,248,0.2,1.8,80,0.00,,,0.00,WUHU216HW,2013-02-09 01:40:00,
2013-02-08 19:45:00,8.3,3.4,29.88,WSW,248,0.2,1.3,80,0.00,,,0.00,WUHU216HW,2013-02-09 01:45:00,
2013-02-08 19:50:00,7.9,3.1,29.88,WSW,248,0.2,0.4,80,0.00,,,0.00,WUHU216HW,2013-02-09 01:50:00,
2013-02-08 19:55:00,7.2,2.1,29.88,WSW,248,0.0,0.2,79,0.00,,,0.00,WUHU216HW,2013-02-09 01:55:00,
2013-02-08 20:00:00,7.0,2.2,29.88,WSW,248,0.0,0.2,80,0.00,,,0.00,WUHU216HW,2013-02-09 02:00:00,
2013-02-08 20:05:00,6.8,1.7,29.88,WSW,248,0.0,0.0,79,0.00,,,0.00,WUHU216HW,2013-02-09 02:05:00,
2013-02-08 20:10:00,6.5,1.4,29.88,WSW,248,0.0,0.0,79,0.00,,,0.00,WUHU216HW,2013-02-09 02:10:00,
2013-02-08 20:15:00,6.3,1.2,29.88,WSW,248,0.0,0.0,79,0.00,,,0.00,WUHU216HW,2013-02-09 02:15:00,
2013-02-08 20:20:00,5.6,0.5,29.87,WSW,248,0.0,0.4,79,0.00,,,0.00,WUHU216HW,2013-02-09 02:20:00,
2013-02-08 20:25:00,5.8,0.9,29.88,WSW,248,0.2,0.4,80,0.00,,,0.00,WUHU216HW,2013-02-09 02:25:00,
2013-02-08 20:30:00,5.6,0.7,29.88,WSW,248,0.0,0.2,80,0.00,,,0.00,WUHU216HW,2013-02-09 02:30:00,
2013-02-08 20:35:00,5.6,0.7,29.88,WSW,248,0.0,0.2,80,0.00,,,0.00,WUHU216HW,2013-02-09 02:35:00,
2013-02-08 20:40:00,5.6,0.7,29.89,WSW,248,0.4,0.7,80,0.00,,,0.00,WUHU216HW,2013-02-09 02:40:00,
2013-02-08 20:45:00,5.6,0.7,29.89,WSW,248,0.0,0.7,80,0.00,,,0.00,WUHU216HW,2013-02-09 02:45:00,
2013-02-08 20:50:00,5.6,0.7,29.89,WSW,248,0.0,0.2,80,0.00,,,0.00,WUHU216HW,2013-02-09 02:50:00,
2013-02-08 20:55:00,5.4,0.5,29.89,WSW,248,0.9,0.9,80,0.00,,,0.00,WUHU216HW,2013-02-09 02:55:00,
2013-02-08 21:00:00,4.7,-0.2,29.89,WSW,248,0.4,1.3,80,0.00,,,0.00,WUHU216HW,2013-02-09 03:00:00,
2013-02-08 21:05:00,4.9,0.0,29.89,WSW,248,1.1,1.6,80,0.00,,,0.00,WUHU216HW,2013-02-09 03:05:00,
2013-02-08 21:10:00,5.0,0.2,29.89,WSW,248,0.4,1.6,80,0.00,,,0.00,WUHU216HW,2013-02-09 03:10:00,
2013-02-08 21:15:00,4.9,0.0,29.89,WSW,248,0.4,1.1,80,0.00,,,0.00,WUHU216HW,2013-02-09 03:15:00,
2013-02-08 21:20:00,4.7,-0.2,29.89,WSW,248,0.0,1.1,80,0.00,,,0.00,WUHU216HW,2013-02-09 03:20:00,
2013-02-08 21:25:00,4.0,-0.9,29.89,WSW,248,0.0,0.4,80,0.00,,,0.00,WUHU216HW,2013-02-09 03:25:00,
2013-02-08 21:30:00,3.8,-1.1,29.89,WSW,248,0.0,0.4,80,0.00,,,0.00,WUHU216HW,2013-02-09 03:30:00,
2013-02-08 21:35:00,3.2,-1.6,29.89,WSW,248,0.0,0.4,80,0.00,,,0.00,WUHU216HW,2013-02-09 03:35:00,
2013-02-08 21:40:00,3.1,-1.8,29.89,WSW,248,0.0,0.0,80,0.00,,,0.00,WUHU216HW,2013-02-09 03:40:00,
2013-02-08 21:45:00,2.9,-2.0,29.89,WSW,248,0.0,0.0,80,0.00,,,0.00,WUHU216HW,2013-02-09 03:45:00,
2013-02-08 21:50:00,2.7,-2.2,29.89,WSW,248,0.0,0.0,80,0.00,,,0.00,WUHU216HW,2013-02-09 03:50:00,
2013-02-08 21:55:00,2.9,-1.7,29.89,SW,225,0.4,0.4,81,0.00,,,0.00,WUHU216HW,2013-02-09 03:55:00,
2013-02-08 22:00:00,2.9,-1.7,29.89,SW,225,0.0,0.4,81,0.00,,,0.00,WUHU216HW,2013-02-09 04:00:00,
2013-02-08 22:05:00,2.9,-2.0,29.89,ESE,113,0.9,0.9,80,0.00,,,0.00,WUHU216HW,2013-02-09 04:05:00,
2013-02-08 22:10:00,2.5,-2.3,29.88,ESE,113,1.6,2.0,80,0.00,,,0.00,WUHU216HW,2013-02-09 04:10:00,
2013-02-08 22:15:00,2.5,-2.3,29.88,SE,135,0.9,2.0,80,0.00,,,0.00,WUHU216HW,2013-02-09 04:15:00,
2013-02-08 22:20:00,2.5,-2.3,29.88,East,90,2.7,2.7,80,0.00,,,0.00,WUHU216HW,2013-02-09 04:20:00,
2013-02-08 22:25:00,2.5,-2.1,29.89,SE,135,1.1,2.7,81,0.00,,,0.00,WUHU216HW,2013-02-09 04:25:00,
2013-02-08 22:30:00,2.5,-2.1,29.88,East,90,0.4,2.7,81,0.00,,,0.00,WUHU216HW,2013-02-09 04:30:00,
2013-02-08 22:35:00,2.5,-2.3,29.88,East,90,0.0,1.1,80,0.00,,,0.00,WUHU216HW,2013-02-09 04:35:00,
2013-02-08 22:40:00,2.5,-2.1,29.88,East,90,0.0,0.4,81,0.00,,,0.00,WUHU216HW,2013-02-09 04:40:00,
2013-02-08 22:45:00,2.7,-1.9,29.89,East,90,0.0,0.0,81,0.00,,,0.00,WUHU216HW,2013-02-09 04:45:00,
2013-02-08 22:50:00,2.9,-1.7,29.88,East,90,0.0,0.2,81,0.00,,,0.00,WUHU216HW,2013-02-09 04:50:00,
2013-02-08 22:55:00,3.2,-1.1,29.88,SE,135,0.2,0.4,82,0.00,,,0.00,WUHU216HW,2013-02-09 04:55:00,
2013-02-08 23:00:00,3.2,-1.1,29.88,SSE,158,1.1,1.1,82,0.00,,,0.00,WUHU216HW,2013-02-09 05:00:00,
2013-02-08 23:05:00,3.2,-1.1,29.88,SSW,203,0.7,1.1,82,0.00,,,0.00,WUHU216HW,2013-02-09 05:05:00,
2013-02-08 23:10:00,3.1,-1.2,29.88,SSW,203,0.4,1.1,82,0.00,,,0.00,WUHU216HW,2013-02-09 05:10:00,
2013-02-08 23:15:00,3.1,-1.2,29.88,SSW,203,0.4,0.9,82,0.00,,,0.00,WUHU216HW,2013-02-09 05:15:00,
2013-02-08 23:20:00,3.1,-1.2,29.88,SSW,203,0.4,1.1,82,0.00,,,0.00,WUHU216HW,2013-02-09 05:20:00,
2013-02-08 23:25:00,2.5,-2.1,29.88,SSW,203,0.2,1.1,81,0.00,,,0.00,WUHU216HW,2013-02-09 05:25:00,
2013-02-08 23:30:00,2.2,-2.4,29.88,SSW,203,0.0,0.4,81,0.00,,,0.00,WUHU216HW,2013-02-09 05:30:00,
2013-02-08 23:35:00,1.4,-3.1,29.88,SSW,203,0.2,0.4,81,0.00,,,0.00,WUHU216HW,2013-02-09 05:35:00,
2013-02-08 23:40:00,1.1,-3.5,29.89,SW,225,1.1,1.1,81,0.00,,,0.00,WUHU216HW,2013-02-09 05:40:00,
2013-02-08 23:45:00,1.1,-3.5,29.89,SW,225,0.0,1.1,81,0.00,,,0.00,WUHU216HW,2013-02-09 05:45:00,
2013-02-08 23:50:00,1.6,-3.0,29.89,SW,225,0.0,1.1,81,0.00,,,0.00,WUHU216HW,2013-02-09 05:50:00,
2013-02-08 23:55:00,1.3,-3.3,29.88,SSW,203,0.0,0.0,81,0.00,,,0.00,WUHU216HW,2013-02-09 05:55:00,